CW0343 Weather Reports


Display with metric or nautical units.
time (UTC)temp
F
wind
direction
speed
MPH
gust
MPH
rain 1hr
in
rain 24hr
in
rain mn
in
humidity
%
barometer
mb
20260507073806 78 3 0.0 0.0 0.00 0.00 0.00 71 1014.7
20260507073305 78 3 0.0 0.0 0.00 0.00 0.00 71 1014.6
20260507072307 78 3 0.0 0.0 0.00 0.00 0.00 71 1014.5
20260507071304 78 92 12.0 12.0 0.00 0.00 0.00 71 1014.3
20260507070304 78 132 10.0 16.0 0.00 0.00 0.00 70 1014.2
20260507065804 78 116 4.0 12.0 0.00 0.00 0.00 70 1014.1
20260507065306 78 119 6.0 12.0 0.00 0.00 0.00 70 1014.0
20260507064804 78 145 7.0 15.0 0.00 0.00 0.00 70 1014.0
20260507064304 79 3 0.0 0.0 0.00 0.00 0.00 69 1013.9
20260507063805 79 3 0.0 0.0 0.00 0.00 0.00 69 1013.9
20260507063305 79 3 0.0 0.0 0.00 0.00 0.00 69 1013.8
20260507062805 79 3 0.0 0.0 0.00 0.00 0.00 69 1013.7
20260507062306 79 3 0.0 0.0 0.00 0.00 0.00 69 1013.6
20260507061804 79 3 0.0 0.0 0.00 0.00 0.00 69 1013.5
20260507061304 79 6 1.0 7.0 0.00 0.00 0.00 69 1013.3
20260507060805 79 123 7.0 7.0 0.00 0.00 0.00 69 1013.2
20260507060304 79 123 7.0 8.0 0.00 0.00 0.00 69 1013.2
20260507055805 79 125 4.0 9.0 0.00 0.00 0.00 69 1013.2
20260507055306 79 151 9.0 9.0 0.00 0.00 0.00 69 1013.2
20260507054805 79 126 6.0 9.0 0.00 0.00 0.00 69 1013.2
20260507054304 79 136 5.0 9.0 0.00 0.00 0.00 68 1013.2
20260507053305 80 98 9.0 9.0 0.00 0.00 0.00 67 1013.2
20260507052804 80 137 3.0 9.0 0.00 0.00 0.00 67 1013.1
20260507052306 81 154 3.0 8.0 0.00 0.00 0.00 66 1013.1
20260507051805 81 148 6.0 12.0 0.00 0.00 0.00 67 1013.1
20260507050805 80 166 5.0 9.0 0.00 0.00 0.00 68 1013.1
20260507050304 80 129 3.0 8.0 0.00 0.00 0.00 68 1013.1
20260507045805 80 141 6.0 10.0 0.00 0.00 0.00 68 1013.1
20260507045306 80 122 3.0 7.0 0.00 0.00 0.00 68 1013.2
20260507044804 80 133 5.0 9.0 0.00 0.00 0.00 68 1013.2
20260507044305 80 88 4.0 7.0 0.00 0.00 0.00 67 1013.1
20260507043804 79 115 4.0 10.0 0.00 0.00 0.00 68 1013.2
20260507043305 79 152 7.0 10.0 0.00 0.00 0.00 67 1013.2
20260507042804 79 136 6.0 10.0 0.00 0.00 0.00 67 1013.3
20260507042307 79 134 5.0 9.0 0.00 0.00 0.00 67 1013.3
20260507041805 79 127 5.0 8.0 0.00 0.00 0.00 66 1013.4
20260507041304 80 134 7.0 7.0 0.00 0.00 0.00 66 1013.4
20260507040806 80 134 6.0 9.0 0.00 0.00 0.00 66 1013.4
20260507040305 80 96 4.0 7.0 0.00 0.00 0.00 67 1013.4
20260507035804 80 106 5.0 8.0 0.00 0.00 0.00 66 1013.5
20260507035306 80 118 5.0 8.0 0.00 0.00 0.00 65 1013.4
20260507034806 80 108 3.0 6.0 0.00 0.00 0.00 65 1013.5
20260507034305 80 105 6.0 6.0 0.00 0.00 0.00 65 1013.5
20260507033805 80 105 5.0 7.0 0.00 0.00 0.00 65 1013.5
20260507033304 80 88 5.0 7.0 0.00 0.00 0.00 65 1013.5
20260507032306 80 55 3.0 6.0 0.00 0.00 0.00 67 1013.6
20260507031804 79 69 4.0 8.0 0.00 0.00 0.00 68 1013.8
20260507031304 79 105 6.0 8.0 0.00 0.00 0.00 68 1013.8
20260507030805 79 104 3.0 7.0 0.00 0.00 0.00 68 1013.9
20260507030305 78 72 3.0 8.0 0.00 0.00 0.00 69 1013.9
20260507025805 78 91 3.0 3.0 0.00 0.00 0.00 69 1014.0
20260507024804 78 97 4.0 10.0 0.00 0.00 0.00 68 1014.1
20260507024304 78 118 3.0 6.0 0.00 0.00 0.00 70 1014.3
20260507023805 78 142 3.0 5.0 0.00 0.00 0.00 70 1014.4
20260507023304 77 86 4.0 6.0 0.00 0.00 0.00 70 1014.5
20260507022804 77 82 7.0 9.0 0.00 0.00 0.00 71 1014.5
20260507022306 77 79 5.0 8.0 0.00 0.00 0.00 71 1014.6
20260507021804 77 132 4.0 8.0 0.00 0.00 0.00 71 1014.6
20260507020805 77 143 6.0 12.0 0.00 0.00 0.00 71 1014.7
20260507020304 77 110 5.0 12.0 0.00 0.00 0.00 71 1014.8
20260507015804 77 112 5.0 8.0 0.00 0.00 0.00 71 1014.9
20260507015306 77 111 6.0 10.0 0.00 0.00 0.00 73 1014.9
20260507014805 76 121 7.0 7.0 0.00 0.00 0.00 73 1015.0
20260507014304 76 121 6.0 7.0 0.00 0.00 0.00 73 1015.2
20260507013805 76 140 5.0 12.0 0.00 0.00 0.00 73 1015.3
20260507013304 76 134 5.0 10.0 0.00 0.00 0.00 73 1015.3
20260507012805 76 156 5.0 9.0 0.00 0.00 0.00 74 1015.4
20260507012306 76 113 4.0 7.0 0.00 0.00 0.00 74 1015.4
20260507011804 76 101 3.0 7.0 0.00 0.00 0.00 74 1015.5
20260507010804 76 107 5.0 8.0 0.00 0.00 0.00 73 1015.6
20260507010304 76 126 6.0 8.0 0.00 0.00 0.00 73 1015.6
20260507005305 76 109 5.0 9.0 0.00 0.00 0.00 72 1015.9
20260507004806 77 134 2.0 9.0 0.00 0.00 0.00 72 1015.9
20260507003804 76 107 5.0 9.0 0.00 0.00 0.00 74 1015.9
20260507003304 76 147 5.0 12.0 0.00 0.00 0.00 74 1016.0
20260507002805 75 152 3.0 8.0 0.00 0.00 0.00 74 1016.1
20260507002306 75 148 4.0 10.0 0.00 0.00 0.00 74 1016.0
20260507001305 75 166 6.0 10.0 0.00 0.00 0.00 75 1016.1
20260507000804 75 158 5.0 8.0 0.00 0.00 0.00 75 1016.2
20260507000306 75 118 5.0 10.0 0.00 0.00 0.00 75 1016.3
20260506234805 76 168 7.0 9.0 0.00 0.00 0.00 73 1016.2
20260506234306 76 171 6.0 13.0 0.00 0.00 0.00 73 1016.2
20260506233804 76 109 7.0 10.0 0.00 0.00 0.00 72 1016.1
20260506233305 76 153 7.0 12.0 0.00 0.00 0.00 73 1016.1
20260506232804 76 102 7.0 12.0 0.00 0.00 0.00 73 1016.1
20260506231806 76 105 6.0 10.0 0.00 0.00 0.00 74 1016.1
20260506230304 75 122 7.0 12.0 0.00 0.00 0.00 74 1015.9
20260506225306 75 128 4.0 12.0 0.00 0.00 0.00 76 1016.0
20260506224804 74 127 5.0 10.0 0.00 0.00 0.00 76 1015.9
20260506224304 74 114 3.0 7.0 0.00 0.00 0.00 77 1015.9
20260506223804 73 154 2.0 7.0 0.00 0.00 0.00 77 1015.9
20260506223304 73 154 4.0 8.0 0.00 0.00 0.00 77 1015.9
20260506222804 73 115 3.0 10.0 0.00 0.00 0.00 78 1015.8
20260506222306 72 118 6.0 8.0 0.00 0.00 0.00 79 1015.8
20260506221805 72 123 3.0 10.0 0.00 0.00 0.00 79 1015.7
20260506221304 72 132 8.0 12.0 0.00 0.00 0.00 79 1015.7
20260506220804 71 115 8.0 12.0 0.00 0.00 0.00 79 1015.7
20260506220305 70 149 3.0 7.0 0.00 0.00 0.00 81 1015.7
20260506215306 69 171 4.0 8.0 0.00 0.00 0.00 82 1015.5
20260506214804 69 128 3.0 8.0 0.00 0.00 0.00 83 1015.5
20260506214304 68 144 4.0 6.0 0.00 0.00 0.00 84 1015.5
20260506213805 68 142 3.0 6.0 0.00 0.00 0.00 85 1015.5
20260506213304 67 136 2.0 5.0 0.00 0.00 0.00 86 1015.5
20260506212306 66 138 2.0 5.0 0.00 0.00 0.00 86 1015.4
20260506211804 65 138 1.0 7.0 0.00 0.00 0.00 86 1015.4
20260506210804 65 136 0.0 3.0 0.00 0.00 0.00 86 1015.3
20260506210305 64 136 1.0 3.0 0.00 0.00 0.00 86 1015.3
20260506205806 64 137 0.0 2.0 0.00 0.00 0.00 86 1015.3
20260506205306 64 136 1.0 2.0 0.00 0.00 0.00 85 1015.2
20260506204804 64 136 1.0 3.0 0.00 0.00 0.00 85 1015.1
20260506203805 64 136 0.0 0.0 0.00 0.00 0.00 85 1015.0
20260506203304 64 136 0.0 2.0 0.00 0.00 0.00 85 1015.0
20260506202306 64 136 1.0 3.0 0.00 0.00 0.00 85 1014.8
20260506201304 64 136 0.0 2.0 0.00 0.00 0.00 85 1014.7
20260506200804 64 136 0.0 2.0 0.00 0.00 0.00 85 1014.7
20260506200304 64 136 1.0 2.0 0.00 0.00 0.00 85 1014.7
20260506195804 64 136 1.0 2.0 0.00 0.00 0.00 85 1014.7
20260506193804 64 136 0.0 0.0 0.00 0.00 0.00 85 1014.5
20260506193305 64 136 0.0 0.0 0.00 0.00 0.00 85 1014.5
20260506192806 64 136 0.0 0.0 0.00 0.00 0.00 85 1014.5
20260506192306 64 136 0.0 1.0 0.00 0.00 0.00 85 1014.5
20260506191805 64 136 1.0 3.0 0.00 0.00 0.00 85 1014.4
20260506191305 64 136 0.0 2.0 0.00 0.00 0.00 85 1014.5
20260506190804 64 136 1.0 3.0 0.00 0.00 0.00 85 1014.4
20260506190304 64 136 2.0 3.0 0.00 0.00 0.00 85 1014.4
20260506185806 64 136 0.0 3.0 0.00 0.00 0.00 85 1014.3
20260506185307 64 136 1.0 2.0 0.00 0.00 0.00 85 1014.3
20260506184804 64 136 0.0 2.0 0.00 0.00 0.00 85 1014.3
20260506184305 64 136 2.0 3.0 0.00 0.00 0.00 85 1014.3
20260506182307 65 138 1.0 3.0 0.00 0.00 0.00 85 1014.4
20260506181804 65 136 0.0 3.0 0.00 0.00 0.00 85 1014.3
20260506181305 65 136 1.0 5.0 0.00 0.00 0.00 85 1014.3
20260506180804 65 139 0.0 6.0 0.00 0.00 0.00 84 1014.3
20260506180305 65 136 1.0 3.0 0.00 0.00 0.00 84 1014.2
20260506175306 65 133 2.0 6.0 0.00 0.00 0.00 84 1014.3
20260506174304 65 142 2.0 5.0 0.00 0.00 0.00 84 1014.4
20260506173804 65 155 1.0 3.0 0.00 0.00 0.00 84 1014.4
20260506173305 65 153 2.0 7.0 0.00 0.00 0.00 84 1014.4
20260506172804 65 154 3.0 8.0 0.00 0.00 0.00 84 1014.4
20260506172307 65 159 2.0 6.0 0.00 0.00 0.00 84 1014.4
20260506171804 65 155 2.0 3.0 0.00 0.00 0.00 84 1014.4
20260506171305 65 155 3.0 3.0 0.00 0.00 0.00 84 1014.4
20260506170804 65 153 1.0 3.0 0.00 0.00 0.00 84 1014.4
20260506165805 65 150 3.0 7.0 0.00 0.00 0.00 84 1014.4
20260506165305 65 152 2.0 8.0 0.00 0.00 0.00 84 1014.4
20260506164804 65 149 2.0 5.0 0.00 0.00 0.00 84 1014.5
20260506163304 65 149 2.0 7.0 0.00 0.00 0.00 84 1014.5
20260506162804 65 161 1.0 6.0 0.00 0.00 0.00 84 1014.6
20260506162306 65 156 1.0 3.0 0.00 0.00 0.00 84 1014.6
20260506161804 65 152 2.0 8.0 0.00 0.00 0.00 84 1014.6
20260506161304 65 159 1.0 5.0 0.00 0.00 0.00 84 1014.7
20260506160804 65 158 3.0 6.0 0.00 0.00 0.00 83 1014.8
20260506160304 65 159 2.0 6.0 0.00 0.00 0.00 83 1014.8
20260506155805 65 158 1.0 3.0 0.00 0.00 0.00 83 1014.9
20260506155306 65 159 2.0 6.0 0.00 0.00 0.00 83 1015.0
20260506154805 65 140 2.0 3.0 0.00 0.00 0.00 83 1015.1
20260506154305 65 142 2.0 7.0 0.00 0.00 0.00 83 1015.1
20260506153804 66 149 1.0 5.0 0.00 0.00 0.00 83 1015.2
20260506153305 66 147 2.0 9.0 0.00 0.00 0.00 83 1015.2
20260506152806 66 135 2.0 7.0 0.00 0.00 0.00 83 1015.3
20260506151304 66 137 2.0 10.0 0.00 0.00 0.00 83 1015.3
20260506150805 66 134 5.0 10.0 0.00 0.00 0.00 83 1015.4
20260506145306 66 123 2.0 12.0 0.00 0.00 0.00 83 1015.4
20260506144805 66 131 3.0 12.0 0.00 0.00 0.00 82 1015.4
20260506143804 66 131 2.0 9.0 0.00 0.00 0.00 82 1015.4
20260506143305 67 132 3.0 8.0 0.00 0.00 0.00 82 1015.5
20260506142804 67 134 5.0 12.0 0.00 0.00 0.00 82 1015.5
20260506142306 67 129 5.0 9.0 0.00 0.00 0.00 82 1015.5
20260506141804 67 142 4.0 9.0 0.00 0.00 0.00 82 1015.5
20260506140805 67 136 3.0 9.0 0.00 0.00 0.00 82 1015.6
20260506135805 67 152 3.0 8.0 0.00 0.00 0.00 82 1015.7
20260506135306 67 139 5.0 8.0 0.00 0.00 0.00 82 1015.7
20260506134804 67 128 3.0 7.0 0.00 0.00 0.00 82 1015.7
20260506133804 67 144 3.0 6.0 0.00 0.00 0.00 82 1015.8
20260506133305 67 130 5.0 9.0 0.00 0.00 0.00 82 1015.8
20260506132307 67 136 2.0 7.0 0.00 0.00 0.00 82 1015.8
20260506131805 67 127 3.0 7.0 0.00 0.00 0.00 82 1015.9
20260506131305 67 147 3.0 6.0 0.00 0.00 0.00 82 1016.0
20260506130805 67 142 3.0 7.0 0.00 0.00 0.00 82 1015.9
20260506130304 67 153 5.0 9.0 0.00 0.00 0.00 82 1015.9
20260506125804 67 138 5.0 9.0 0.00 0.00 0.00 82 1015.9
20260506125306 67 150 3.0 7.0 0.00 0.00 0.00 81 1016.0
20260506124804 67 149 2.0 5.0 0.00 0.00 0.00 81 1016.1
20260506124305 67 148 2.0 3.0 0.00 0.00 0.00 81 1016.1
20260506123805 67 148 1.0 3.0 0.00 0.00 0.00 81 1016.2
20260506123305 68 148 2.0 3.0 0.00 0.00 0.00 81 1016.2
20260506121304 68 161 2.0 6.0 0.00 0.00 0.00 81 1016.4
20260506120804 68 161 3.0 8.0 0.00 0.00 0.00 81 1016.5
20260506120304 68 164 5.0 9.0 0.00 0.00 0.00 81 1016.5
20260506115805 68 152 3.0 6.0 0.00 0.00 0.00 81 1016.5
20260506115307 68 146 3.0 10.0 0.00 0.00 0.00 81 1016.6
20260506114804 68 160 5.0 8.0 0.00 0.00 0.00 81 1016.5
20260506113806 68 131 3.0 7.0 0.00 0.00 0.00 81 1016.5
20260506113305 68 132 3.0 5.0 0.00 0.00 0.00 81 1016.5
20260506112805 68 132 2.0 5.0 0.00 0.00 0.00 81 1016.5
20260506111805 68 133 3.0 7.0 0.00 0.00 0.00 81 1016.6
20260506110805 68 139 2.0 7.0 0.00 0.00 0.00 81 1016.6
20260506110304 68 117 3.0 7.0 0.00 0.00 0.00 81 1016.6
20260506105804 68 123 3.0 8.0 0.00 0.00 0.00 81 1016.5
20260506105305 69 113 3.0 7.0 0.00 0.00 0.00 81 1016.4
20260506104806 69 105 1.0 6.0 0.00 0.00 0.00 81 1016.4
20260506104304 69 101 1.0 2.0 0.00 0.00 0.00 80 1016.3
20260506103804 69 101 1.0 2.0 0.00 0.00 0.00 80 1016.3
20260506103304 69 101 1.0 3.0 0.00 0.00 0.00 80 1016.3
20260506102305 69 101 2.0 3.0 0.00 0.00 0.00 80 1016.1
20260506100804 70 101 1.0 2.0 0.00 0.00 0.00 80 1016.0
20260506095804 70 101 1.0 3.0 0.00 0.00 0.00 80 1016.0
20260506094304 70 101 2.0 3.0 0.00 0.00 0.00 79 1015.6
20260506093805 71 101 1.0 3.0 0.00 0.00 0.00 79 1015.5
20260506093304 71 101 3.0 6.0 0.00 0.00 0.00 78 1015.3
20260506092805 71 103 3.0 6.0 0.00 0.00 0.00 78 1015.2
20260506092306 71 120 4.0 10.0 0.00 0.00 0.00 78 1015.1
20260506091804 71 113 5.0 8.0 0.00 0.00 0.00 78 1015.0
20260506091304 71 85 4.0 8.0 0.00 0.00 0.00 78 1015.0
20260506090805 72 84 3.0 5.0 0.00 0.00 0.00 78 1014.9
20260506090304 72 89 2.0 5.0 0.00 0.00 0.00 78 1014.8
20260506085805 72 90 2.0 3.0 0.00 0.00 0.00 77 1014.7
20260506085306 72 87 2.0 3.0 0.00 0.00 0.00 77 1014.7
20260506084805 72 88 2.0 5.0 0.00 0.00 0.00 77 1014.7
20260506084305 72 88 2.0 5.0 0.00 0.00 0.00 78 1014.6
20260506082804 73 24 1.0 2.0 0.00 0.00 0.00 76 1014.4
20260506082305 74 24 1.0 2.0 0.00 0.00 0.00 76 1014.3
20260506081806 74 24 1.0 2.0 0.00 0.00 0.00 76 1014.3
20260506081304 74 24 1.0 2.0 0.00 0.00 0.00 76 1014.2
20260506080804 74 24 1.0 2.0 0.00 0.00 0.00 76 1014.2
20260506080305 75 24 1.0 3.0 0.00 0.00 0.00 75 1014.2